Regional Weather Roundup
Issued by NWS

Home | Current Version | Previous Version | Text Only | Print | Product List | Glossary Off
Versions: 1 2 3 4 5 6 7 8 9 10 11 12 13 14 15 16 17 18 19 20 21 22 23 24 25 26 27 28 29 30 31 32 33 34 35 36 37 38 39 40 41 42 43 44 45 46 47 48 49 50

000
ASUS43 KFSD 281310
RWRSD

WEATHER ROUNDUP FOR SOUTH DAKOTA
NATIONAL WEATHER SERVICE SIOUX FALLS SD
800 AM CDT THU AUG 28 2014

NOTE: "FAIR" INDICATES FEW OR NO CLOUDS BELOW 12,000 FEET WITH NO
SIGNIFICANT WEATHER AND/OR OBSTRUCTIONS TO VISIBILITY.


SDZ001>005-009-010-012>017-281400-
NORTHWEST AND NORTH CENTRAL SOUTH DAKOTA

CITY           SKY/WX    TMP DP  RH WIND       PRES   REMARKS
FAITH            N/A     63  62  97 N5        29.97S
MOBRIDGE       LGT RAIN  66  66 100 SE5       29.93R
$$

SDZ012>016-024>037-041>051-057-063-072>074-281400-
SOUTHWEST AND SOUTH CENTRAL SOUTH DAKOTA

CITY           SKY/WX    TMP DP  RH WIND       PRES   REMARKS
RAPID CTY ARPT CLOUDY    62  59  90 W5        29.99F
PIERRE         CLOUDY    67  67 100 E9        29.91F
CUSTER         CLOUDY    56  51  84 N5        30.10S
ELLSWORTH AFB  CLOUDY    62  60  93 W3        29.99F
PHILIP         CLOUDY    65  64  97 NE6       29.94R FOG
PINE RIDGE     CLOUDY    63  63 100 N5        29.99R FOG
WINNER         CLOUDY    68  66  93 E6        29.89F
$$

SDZ004>011-016>023-039-040-281400-
NORTHEAST SOUTH DAKOTA

CITY           SKY/WX    TMP DP  RH WIND       PRES   REMARKS
ABERDEEN       CLOUDY    65  65 100 SE6       29.96S
WATERTOWN      CLOUDY    66  63  90 SE8       29.98S
SISSETON         N/A     63  63 100 S5        29.98S
$$

SDZ017-020-022-023-036>040-048>070-281400-
SOUTHEAST SOUTH DAKOTA

CITY           SKY/WX    TMP DP  RH WIND       PRES   REMARKS
SIOUX FALLS    LGT RAIN  67  66  97 SE12      29.97S FOG
HURON          LGT RAIN  67  66  97 E8        29.93F
CHAMBERLAIN    RAIN      66  66  99 E5        29.91S
MITCHELL       RAIN      68  68 100 SE9       29.93S FOG
YANKTON        CLOUDY    68  66  94 E9        29.92F
$$

ABBREVIATIONS USED IN REMARKS
   TC - TEMPERATURE IN CELSIUS
  WCI - WIND CHILL INDEX
   HX - HEAT INDEX
  VSB - VISIBILITY




USA.gov is the U.S. government's official web portal to all federal, state and local government web resources and services.